Location: Bidwell Hollow
(37.7387°N, 90.1707°W)
Time: 12:01:03
(UTC+00:00)

Envisat - Pass Details

Date: 12 October 2024
Orbit: 761 x 763 km, 98.3° (Epoch: 06 November)

Event Time Altitude Azimuth Distance (km) Brightness Sun altitude
Rises 10:27:28 0° 353° (N) 3,232 6.2 -20.4°
Reaches altitude 10° 10:30:37 10° 333° (NNW) 2,301 5.3 -19.8°
Enters shadow 10:31:06 12° 328° (NNW) 2,195 5.1 -19.7°
